Language: 


Des rapports , des résumés tant et plus, au choix de chacun....


Données statistiques de la station
Quotidien Rapport Juillet 12, 2017 Unités:  Métrique    Anglais   les deux
« Précédent Jour
Suivant Jour »
Quotidien Hebdomadaire Mensuel Annuel Actuel
  Haut: Bas: Moyen:
Température: 22.3 °C 0.0 °C 17.3 °C
Pt de rosée: 18.0 °C 8.0 °C 14.3 °C
Humidité: 98 % 0 % 83 %
Vitesse du vent: 32.0 km/h 0.0 km/h 9.1 km/h
Rafales: 42.2 km/h - -
Vent:- - WSW
Pression: 1022.9 hPa 1003.9 hPa -
Précipitation: 4.8 mm    
Historical Graphs
 
 
Données statistiques pour Juillet 12, 2017
Heure Température Point de rosée Pression Vent Vitesse du vent Refales Humidité Pluie (taux horaire)
00:01 15.1 °C 14.0 °C 1010.0 hPa Calm   6.1 km/h 95 % 0.5 mm
00:06 15.0 °C 14.0 °C 1010.0 hPa Calm   6.1 km/h 95 % 0.8 mm
00:11 15.0 °C 14.0 °C 1010.0 hPa ESE 5.5 km/h 7.6 km/h 95 % 0.8 mm
00:16 14.9 °C 14.0 °C 1010.0 hPa Calm   7.6 km/h 95 % 0.8 mm
00:19 14.9 °C 14.0 °C 1010.0 hPa Calm   7.6 km/h 95 % 1.5 mm
00:24 14.9 °C 15.0 °C 1010.0 hPa Calm   5.8 km/h 96 % 1.8 mm
00:29 14.9 °C 15.0 °C 1010.0 hPa Calm   6.1 km/h 96 % 2.0 mm
00:34 14.9 °C 15.0 °C 1010.0 hPa Calm   6.1 km/h 96 % 2.0 mm
00:39 14.9 °C 15.0 °C 1010.0 hPa Calm   5.5 km/h 96 % 2.0 mm
00:44 14.9 °C 15.0 °C 1009.0 hPa East 2.6 km/h 5.8 km/h 96 % 2.0 mm
00:49 14.9 °C 15.0 °C 1009.0 hPa Calm   6.9 km/h 96 % 2.0 mm
00:54 14.9 °C 15.0 °C 1009.0 hPa ESE 1.4 km/h 10.5 km/h 96 % 1.8 mm
00:59 14.9 °C 15.0 °C 1009.0 hPa East 5.0 km/h 10.5 km/h 97 % 1.5 mm
01:05 14.9 °C 15.0 °C 1009.0 hPa East 3.5 km/h 9.3 km/h 97 % 1.5 mm
01:10 14.9 °C 15.0 °C 1009.0 hPa East 6.9 km/h 8.7 km/h 97 % 1.5 mm
01:15 14.8 °C 14.0 °C 1009.0 hPa East 3.2 km/h 8.7 km/h 97 % 1.5 mm
01:20 14.8 °C 14.0 °C 1009.0 hPa ESE 4.0 km/h 8.7 km/h 97 % 0.8 mm
01:25 14.8 °C 14.0 °C 1009.0 hPa ESE 2.6 km/h 8.7 km/h 97 % 0.5 mm
01:30 14.8 °C 14.0 °C 1008.0 hPa ESE 5.5 km/h 8.7 km/h 97 % 0.3 mm
01:35 14.8 °C 14.0 °C 1008.0 hPa Calm   6.4 km/h 97 % 0.3 mm
01:40 14.9 °C 15.0 °C 1008.0 hPa Calm   6.1 km/h 97 % 0.3 mm
01:45 14.9 °C 15.0 °C 1009.0 hPa Calm   2.6 km/h 97 % 0.3 mm
01:50 14.9 °C 15.0 °C 1009.0 hPa Calm   4.0 km/h 97 % 0.3 mm
01:55 15.0 °C 15.0 °C 1009.0 hPa Calm   4.3 km/h 96 % 0.5 mm
02:00 15.0 °C 15.0 °C 1009.0 hPa SE 4.7 km/h 5.5 km/h 96 % 0.5 mm
02:05 15.1 °C 15.0 °C 1009.0 hPa SSE 5.0 km/h 5.8 km/h 96 % 0.3 mm
02:10 15.1 °C 15.0 °C 1009.0 hPa SSW 2.1 km/h 5.8 km/h 97 % 0.3 mm
02:15 15.1 °C 15.0 °C 1009.0 hPa SE 1.4 km/h 5.8 km/h 97 % 0.3 mm
02:20 15.1 °C 15.0 °C 1009.0 hPa Calm   4.3 km/h 97 % 0.3 mm
02:25 15.1 °C 15.0 °C 1009.0 hPa Calm   4.3 km/h 97 % 0.5 mm
02:31 15.1 °C 15.0 °C 1008.0 hPa Calm   2.1 km/h 97 % 0.5 mm
02:36 15.1 °C 15.0 °C 1008.0 hPa Calm   2.1 km/h 97 % 0.5 mm
02:41 15.1 °C 15.0 °C 1008.0 hPa Calm     97 % 0.5 mm
02:42 15.1 °C 15.0 °C 1008.0 hPa Calm   2.1 km/h 97 % 0.5 mm
02:47 15.2 °C 15.0 °C 1007.0 hPa Calm   5.0 km/h 97 % 0.5 mm
02:52 15.2 °C 15.0 °C 1007.0 hPa SSE 4.7 km/h 5.0 km/h 97 % 0.5 mm
02:57 15.2 °C 15.0 °C 1007.0 hPa Calm   5.0 km/h 97 % 0.3 mm
03:02 15.2 °C 15.0 °C 1008.0 hPa Calm   5.0 km/h 97 % 0.3 mm
03:07 15.3 °C 15.0 °C 1008.0 hPa Calm   6.4 km/h 97 % 0.3 mm
03:12 15.3 °C 15.0 °C 1008.0 hPa South 1.4 km/h 7.9 km/h 97 % 0.3 mm
03:17 15.4 °C 15.0 °C 1007.0 hPa Calm   7.9 km/h 97 % 0.3 mm
03:22 15.4 °C 15.0 °C 1007.0 hPa Calm   9.0 km/h 97 % 0.0 mm
03:27 15.4 °C 15.0 °C 1007.0 hPa South 5.0 km/h 9.0 km/h 97 % 0.0 mm
03:32 15.5 °C 15.0 °C 1007.0 hPa Calm   6.9 km/h 97 % 0.0 mm
03:37 15.5 °C 16.0 °C 1007.0 hPa SSW 1.4 km/h 6.4 km/h 98 % 0.0 mm
03:42 15.5 °C 16.0 °C 1007.0 hPa Calm   11.9 km/h 98 % 0.0 mm
03:47 15.6 °C 16.0 °C 1007.0 hPa SSE 8.7 km/h 11.9 km/h 98 % 0.0 mm
03:52 15.6 °C 16.0 °C 1007.0 hPa SSW 6.9 km/h 12.6 km/h 98 % 0.0 mm
03:57 15.6 °C 16.0 °C 1007.0 hPa SSW 9.3 km/h 12.6 km/h 98 % 0.0 mm
04:02 15.7 °C 16.0 °C 1007.0 hPa SW 13.0 km/h 13.0 km/h 98 % 0.0 mm
04:07 15.8 °C 16.0 °C 1007.0 hPa SSW 9.7 km/h 13.7 km/h 98 % 0.0 mm
04:12 15.9 °C 16.0 °C 1007.0 hPa SSW 9.0 km/h 13.7 km/h 98 % 0.0 mm
04:17 15.9 °C 16.0 °C 1007.0 hPa SSW 5.0 km/h 12.2 km/h 98 % 0.0 mm
04:22 15.9 °C 16.0 °C 1007.0 hPa SSW 8.7 km/h 12.2 km/h 98 % 0.0 mm
04:28 16.0 °C 16.0 °C 1007.0 hPa SSW 11.9 km/h 11.9 km/h 98 % 0.0 mm
04:33 16.1 °C 16.0 °C 1006.0 hPa SSW 9.3 km/h 13.7 km/h 98 % 0.0 mm
04:38 16.1 °C 16.0 °C 1006.0 hPa SSW 4.7 km/h 14.0 km/h 98 % 0.0 mm
04:43 16.1 °C 16.0 °C 1006.0 hPa SSW 6.1 km/h 14.0 km/h 98 % 0.0 mm
04:48 16.2 °C 16.0 °C 1006.0 hPa South 10.1 km/h 12.6 km/h 98 % 0.0 mm
04:53 16.2 °C 16.0 °C 1006.0 hPa SSW 9.3 km/h 12.2 km/h 98 % 0.0 mm
04:58 16.2 °C 16.0 °C 1006.0 hPa WSW 6.4 km/h 13.7 km/h 98 % 0.0 mm
05:03 16.3 °C 16.0 °C 1006.0 hPa Calm   13.7 km/h 98 % 0.0 mm
05:08 16.3 °C 16.0 °C 1006.0 hPa SSW 4.3 km/h 11.9 km/h 98 % 0.0 mm
05:13 16.3 °C 16.0 °C 1006.0 hPa SSW 13.0 km/h 14.0 km/h 98 % 0.0 mm
05:18 16.3 °C 16.0 °C 1006.0 hPa SSW 6.4 km/h 14.0 km/h 98 % 0.0 mm
05:23 16.4 °C 16.0 °C 1006.0 hPa SSW 5.8 km/h 14.3 km/h 98 % 0.0 mm
05:28 16.4 °C 16.0 °C 1006.0 hPa SW 11.6 km/h 14.3 km/h 98 % 0.0 mm
05:34 16.4 °C 16.0 °C 1006.0 hPa SSW 6.1 km/h 14.0 km/h 98 % 0.0 mm
05:39 16.4 °C 16.0 °C 1006.0 hPa SSW 9.0 km/h 14.0 km/h 98 % 0.0 mm
05:44 16.5 °C 17.0 °C 1006.0 hPa SSW 6.1 km/h 13.7 km/h 98 % 0.0 mm
05:49 16.5 °C 17.0 °C 1006.0 hPa South 16.3 km/h 16.3 km/h 98 % 0.0 mm
05:54 16.5 °C 17.0 °C 1006.0 hPa SW 6.4 km/h 16.3 km/h 98 % 0.0 mm
05:59 16.5 °C 17.0 °C 1006.0 hPa SSW 13.7 km/h 19.5 km/h 98 % 0.0 mm
06:04 16.5 °C 16.0 °C 1006.0 hPa SW 14.8 km/h 19.5 km/h 97 % 0.0 mm
06:09 16.6 °C 17.0 °C 1006.0 hPa WSW 12.2 km/h 18.0 km/h 98 % 0.0 mm
06:14 16.6 °C 17.0 °C 1006.0 hPa SSW 10.1 km/h 19.8 km/h 98 % 0.0 mm
06:19 16.6 °C 17.0 °C 1006.0 hPa SSW 11.1 km/h 19.8 km/h 98 % 0.0 mm
06:24 16.6 °C 17.0 °C 1006.0 hPa WSW 8.7 km/h 14.0 km/h 98 % 0.0 mm
06:29 16.6 °C 17.0 °C 1006.0 hPa WSW 8.7 km/h 16.3 km/h 98 % 0.0 mm
06:34 16.6 °C 17.0 °C 1006.0 hPa WSW 11.9 km/h 16.3 km/h 98 % 0.0 mm
06:39 16.7 °C 17.0 °C 1006.0 hPa WSW 9.0 km/h 14.0 km/h 98 % 0.0 mm
06:44 16.7 °C 17.0 °C 1006.0 hPa SSW 6.9 km/h 14.0 km/h 98 % 0.0 mm
06:49 16.7 °C 17.0 °C 1006.0 hPa SW 9.0 km/h 14.0 km/h 98 % 0.0 mm
06:54 16.7 °C 17.0 °C 1006.0 hPa WSW 8.7 km/h 11.9 km/h 98 % 0.0 mm
06:59 16.7 °C 17.0 °C 1005.0 hPa WSW 9.0 km/h 11.9 km/h 98 % 0.0 mm
07:04 16.7 °C 17.0 °C 1005.0 hPa Calm   10.5 km/h 98 % 0.0 mm
07:09 16.7 °C 17.0 °C 1005.0 hPa SW 5.0 km/h 10.1 km/h 98 % 0.0 mm
07:14 16.7 °C 17.0 °C 1005.0 hPa SSW 6.1 km/h 13.0 km/h 98 % 0.0 mm
07:19 16.7 °C 17.0 °C 1005.0 hPa WSW 7.6 km/h 13.0 km/h 98 % 0.0 mm
07:24 16.7 °C 17.0 °C 1005.0 hPa Calm   12.6 km/h 98 % 0.0 mm
07:30 16.8 °C 17.0 °C 1005.0 hPa WSW 9.3 km/h 12.6 km/h 98 % 0.0 mm
07:35 16.8 °C 17.0 °C 1005.0 hPa WSW 9.3 km/h 11.6 km/h 98 % 0.0 mm
07:40 16.8 °C 17.0 °C 1005.0 hPa SSW 6.4 km/h 10.1 km/h 98 % 0.0 mm
07:45 16.9 °C 17.0 °C 1003.9 hPa Calm   10.5 km/h 98 % 0.0 mm
07:50 16.9 °C 17.0 °C 1003.9 hPa SW 11.9 km/h 15.8 km/h 98 % 0.0 mm
07:55 17.0 °C 17.0 °C 1003.9 hPa SSW 2.6 km/h 15.8 km/h 97 % 0.0 mm
08:00 17.0 °C 17.0 °C 1003.9 hPa WSW 10.1 km/h 15.4 km/h 97 % 0.0 mm
08:05 17.0 °C 17.0 °C 1003.9 hPa WSW 8.7 km/h 14.0 km/h 97 % 0.0 mm
08:10 17.0 °C 17.0 °C 1003.9 hPa SW 9.3 km/h 13.7 km/h 97 % 0.0 mm
08:15 17.1 °C 17.0 °C 1005.0 hPa WSW 6.4 km/h 13.7 km/h 97 % 0.0 mm
08:20 17.3 °C 17.0 °C 1005.0 hPa WSW 1.8 km/h 13.7 km/h 97 % 0.0 mm
08:25 17.3 °C 17.0 °C 1005.0 hPa SW 11.6 km/h 13.0 km/h 97 % 0.0 mm
08:30 17.3 °C 17.0 °C 1005.0 hPa South 9.3 km/h 13.0 km/h 97 % 0.0 mm
08:35 17.3 °C 17.0 °C 1005.0 hPa WSW 9.3 km/h 13.7 km/h 97 % 0.0 mm
08:40 17.3 °C 17.0 °C 1005.0 hPa SW 16.3 km/h 24.8 km/h 97 % 0.0 mm
08:45 17.3 °C 17.0 °C 1006.0 hPa West 27.4 km/h 27.4 km/h 97 % 0.0 mm
08:50 17.4 °C 17.0 °C 1006.0 hPa WSW 16.3 km/h 27.4 km/h 97 % 0.0 mm
08:55 17.4 °C 17.0 °C 1006.0 hPa WSW 12.6 km/h 25.3 km/h 97 % 0.0 mm
09:00 17.4 °C 17.0 °C 1005.0 hPa WSW 17.7 km/h 27.7 km/h 97 % 0.0 mm
09:05 17.5 °C 17.0 °C 1005.0 hPa West 15.4 km/h 27.7 km/h 97 % 0.0 mm
09:10 17.5 °C 17.0 °C 1005.0 hPa WSW 21.2 km/h 25.6 km/h 97 % 0.0 mm
09:15 17.6 °C 17.0 °C 1006.0 hPa West 15.4 km/h 31.4 km/h 97 % 0.0 mm
09:21 17.7 °C 17.0 °C 1006.0 hPa West 12.2 km/h 31.4 km/h 97 % 0.0 mm
09:26 17.8 °C 17.0 °C 1006.0 hPa WSW 12.6 km/h 26.7 km/h 97 % 0.0 mm
09:31 17.7 °C 17.0 °C 1006.0 hPa WSW 20.6 km/h 26.7 km/h 97 % 0.0 mm
09:36 17.7 °C 17.0 °C 1006.0 hPa West 16.6 km/h 26.2 km/h 97 % 0.0 mm
09:41 17.7 °C 17.0 °C 1006.0 hPa WSW 16.6 km/h 24.8 km/h 96 % 0.0 mm
09:46 17.7 °C 17.0 °C 1006.0 hPa West 19.8 km/h 23.8 km/h 96 % 0.0 mm
09:51 17.8 °C 17.0 °C 1006.0 hPa WSW 13.7 km/h 27.4 km/h 96 % 0.0 mm
09:56 18.0 °C 18.0 °C 1006.0 hPa WSW 20.1 km/h 37.0 km/h 96 % 0.0 mm
10:01 18.2 °C 18.0 °C 1006.0 hPa West 25.9 km/h 37.0 km/h 96 % 0.0 mm
10:06 18.4 °C 18.0 °C 1006.0 hPa WSW 17.2 km/h 38.5 km/h 96 % 0.0 mm
10:11 18.5 °C 18.0 °C 1006.0 hPa WSW 15.1 km/h 38.5 km/h 96 % 0.0 mm
10:16 18.6 °C 18.0 °C 1007.0 hPa West 32.0 km/h 37.0 km/h 96 % 0.0 mm
10:21 18.7 °C 18.0 °C 1007.0 hPa West 24.5 km/h 37.0 km/h 95 % 0.0 mm
10:26 18.4 °C 18.0 °C 1007.0 hPa SW 28.0 km/h 34.6 km/h 95 % 0.0 mm
10:31 18.1 °C 17.0 °C 1006.0 hPa WSW 17.7 km/h 37.8 km/h 95 % 0.0 mm
10:36 18.1 °C 17.0 °C 1006.0 hPa West 23.8 km/h 42.2 km/h 95 % 0.0 mm
10:41 18.2 °C 18.0 °C 1006.0 hPa WNW 20.6 km/h 42.2 km/h 95 % 0.0 mm
10:46 18.5 °C 18.0 °C 1007.0 hPa West 16.9 km/h 27.4 km/h 95 % 0.0 mm
10:51 18.6 °C 18.0 °C 1007.0 hPa WSW 9.0 km/h 23.0 km/h 95 % 0.0 mm
10:56 18.2 °C 17.0 °C 1007.0 hPa WNW 20.6 km/h 26.7 km/h 94 % 0.0 mm
11:01 18.2 °C 17.0 °C 1006.0 hPa NNW 10.5 km/h 26.7 km/h 93 % 0.0 mm
11:06 18.1 °C 17.0 °C 1006.0 hPa NNW 21.9 km/h 27.0 km/h 93 % 0.0 mm
11:11 17.8 °C 16.0 °C 1006.0 hPa NNE 9.3 km/h 27.0 km/h 92 % 0.0 mm
11:16 17.7 °C 16.0 °C 1008.0 hPa NNE 32.0 km/h 34.3 km/h 92 % 0.0 mm
11:21 18.0 °C 17.0 °C 1008.0 hPa North 14.0 km/h 34.3 km/h 91 % 0.0 mm
11:26 18.0 °C 17.0 °C 1008.0 hPa North 19.8 km/h 22.4 km/h 91 % 0.0 mm
11:31 18.0 °C 17.0 °C 1009.0 hPa North 9.0 km/h 22.4 km/h 91 % 0.0 mm
11:36 18.1 °C 17.0 °C 1009.0 hPa NNW 15.1 km/h 20.9 km/h 91 % 0.0 mm
11:41 17.9 °C 17.0 °C 1009.0 hPa WNW 18.3 km/h 19.5 km/h 91 % 0.0 mm
11:46 17.9 °C 17.0 °C 1009.0 hPa NW 6.1 km/h 18.3 km/h 92 % 0.0 mm
11:51 18.0 °C 17.0 °C 1009.0 hPa NW 6.4 km/h 16.6 km/h 91 % 0.0 mm
11:56 18.4 °C 17.0 °C 1009.0 hPa NW 9.7 km/h 21.2 km/h 91 % 0.0 mm
12:01 18.6 °C 17.0 °C 1009.0 hPa NNE 6.4 km/h 21.2 km/h 91 % 0.0 mm
12:06 18.6 °C 17.0 °C 1009.0 hPa North 14.3 km/h 20.6 km/h 90 % 0.0 mm
12:11 18.6 °C 17.0 °C 1009.0 hPa NW 14.8 km/h 17.7 km/h 90 % 0.0 mm
12:16 18.7 °C 17.0 °C 1010.0 hPa NNE 15.8 km/h 17.7 km/h 89 % 0.0 mm
12:21 18.7 °C 17.0 °C 1010.0 hPa North 17.2 km/h 19.5 km/h 88 % 0.0 mm
12:26 18.6 °C 17.0 °C 1010.0 hPa North 9.0 km/h 19.5 km/h 88 % 0.0 mm
12:31 19.4 °C 17.0 °C 1011.1 hPa North 11.9 km/h 19.5 km/h 86 % 0.0 mm
12:36 19.5 °C 17.0 °C 1011.1 hPa North 17.2 km/h 21.2 km/h 85 % 0.0 mm
12:41 19.3 °C 17.0 °C 1011.1 hPa North 10.1 km/h 21.2 km/h 84 % 0.0 mm
12:46 19.5 °C 17.0 °C 1010.0 hPa NNW 13.0 km/h 20.1 km/h 84 % 0.0 mm
12:51 19.7 °C 17.0 °C 1010.0 hPa WNW 9.3 km/h 24.8 km/h 82 % 0.0 mm
12:56 19.8 °C 17.0 °C 1010.0 hPa NW 10.1 km/h 24.8 km/h 83 % 0.0 mm
13:01 19.1 °C 16.0 °C 1011.1 hPa NNW 9.3 km/h 17.7 km/h 82 % 0.0 mm
13:06 18.6 °C 16.0 °C 1011.1 hPa NNE 12.2 km/h 17.2 km/h 86 % 0.0 mm
13:11 18.2 °C 16.0 °C 1011.1 hPa WNW 7.9 km/h 20.1 km/h 87 % 0.0 mm
13:16 18.2 °C 16.0 °C 1012.1 hPa NNW 10.1 km/h 20.1 km/h 88 % 0.0 mm
13:21 18.4 °C 16.0 °C 1012.1 hPa ENE 8.7 km/h 20.1 km/h 87 % 0.0 mm
13:26 19.0 °C 17.0 °C 1012.1 hPa NW 6.4 km/h 19.8 km/h 87 % 0.0 mm
13:32 19.4 °C 16.0 °C 1012.1 hPa North 14.0 km/h 20.9 km/h 83 % 0.0 mm
13:37 19.9 °C 17.0 °C 1012.1 hPa North 15.8 km/h 20.9 km/h 82 % 0.0 mm
13:42 19.9 °C 17.0 °C 1012.1 hPa North 6.4 km/h 20.6 km/h 82 % 0.0 mm
13:47 19.3 °C 16.0 °C 1013.1 hPa West 6.1 km/h 30.2 km/h 81 % 0.0 mm
13:52 19.0 °C 16.0 °C 1013.1 hPa North 14.0 km/h 30.2 km/h 84 % 0.0 mm
13:57 18.8 °C 16.0 °C 1013.1 hPa North 16.6 km/h 24.8 km/h 83 % 0.0 mm
14:02 19.1 °C 16.0 °C 1013.1 hPa North 16.3 km/h 24.8 km/h 81 % 0.0 mm
14:07 19.9 °C 17.0 °C 1013.1 hPa NNE 15.8 km/h 31.4 km/h 80 % 0.0 mm
14:12 20.9 °C 17.0 °C 1013.1 hPa NNW 12.6 km/h 31.4 km/h 78 % 0.0 mm
14:18 21.2 °C 17.0 °C 1013.1 hPa NNE 20.9 km/h 24.8 km/h 75 % 0.0 mm
14:23 20.9 °C 15.0 °C 1013.1 hPa NNE 9.3 km/h 28.5 km/h 70 % 0.0 mm
14:28 21.0 °C 15.0 °C 1013.1 hPa NNW 17.2 km/h 30.9 km/h 70 % 0.0 mm
14:33 21.6 °C 16.0 °C 1013.1 hPa NNE 21.2 km/h 30.9 km/h 70 % 0.0 mm
14:38 21.5 °C 16.0 °C 1013.1 hPa NE 15.8 km/h 21.2 km/h 68 % 0.0 mm
14:43 22.3 °C 16.0 °C 1013.1 hPa NNE 7.9 km/h 21.2 km/h 68 % 0.0 mm
14:48 20.8 °C 15.0 °C 1014.1 hPa NE 10.1 km/h 27.0 km/h 68 % 0.0 mm
14:53 20.1 °C 15.0 °C 1014.1 hPa North 17.7 km/h 27.0 km/h 71 % 0.0 mm
14:58 20.1 °C 15.0 °C 1014.1 hPa NNW 12.2 km/h 21.6 km/h 72 % 0.0 mm
15:03 20.5 °C 15.0 °C 1015.1 hPa North 16.6 km/h 19.8 km/h 71 % 0.0 mm
15:08 20.1 °C 14.0 °C 1015.1 hPa NNW 16.6 km/h 24.5 km/h 70 % 0.0 mm
15:13 19.7 °C 14.0 °C 1015.1 hPa NNE 9.3 km/h 24.5 km/h 70 % 2.5 mm
15:18 19.8 °C 14.0 °C 1015.1 hPa NNE 8.7 km/h 24.5 km/h 70 % 2.5 mm
15:23 20.1 °C 14.0 °C 1015.1 hPa North 16.9 km/h 21.2 km/h 70 % 2.5 mm
15:28 20.4 °C 14.0 °C 1015.1 hPa NNW 13.0 km/h 22.4 km/h 69 % 2.5 mm
15:33 20.5 °C 15.0 °C 1015.1 hPa NNE 11.9 km/h 22.4 km/h 69 % 2.5 mm
15:38 20.5 °C 14.0 °C 1015.1 hPa NNE 21.2 km/h 21.2 km/h 66 % 2.5 mm
15:43 20.3 °C 14.0 °C 1015.1 hPa NW 20.1 km/h 23.0 km/h 68 % 2.5 mm
15:48 20.8 °C 15.0 °C 1015.1 hPa East 19.8 km/h 23.3 km/h 70 % 2.5 mm
15:53 20.7 °C 15.0 °C 1015.1 hPa NE 10.8 km/h 25.3 km/h 68 % 2.5 mm
15:58 20.9 °C 15.0 °C 1016.1 hPa NNW 16.9 km/h 25.3 km/h 69 % 2.5 mm
16:04 20.9 °C 14.0 °C 1016.1 hPa NE 8.7 km/h 24.5 km/h 65 % 2.5 mm
16:09 20.6 °C 13.0 °C 1016.1 hPa North 10.5 km/h 24.8 km/h 62 % 2.5 mm
16:14 20.3 °C 14.0 °C 1016.8 hPa NNW 17.2 km/h 25.3 km/h 65 % 0.0 mm
16:19 20.2 °C 13.0 °C 1016.8 hPa NNW 20.9 km/h 25.3 km/h 64 % 0.0 mm
16:24 19.9 °C 13.0 °C 1016.8 hPa North 20.1 km/h 24.8 km/h 65 % 0.0 mm
16:29 20.5 °C 14.0 °C 1016.8 hPa NNE 13.0 km/h 24.8 km/h 65 % 0.0 mm
16:34 21.1 °C 14.0 °C 1016.8 hPa North 12.6 km/h 20.6 km/h 64 % 0.0 mm
16:39 20.2 °C 13.0 °C 1016.8 hPa North 14.3 km/h 20.6 km/h 63 % 0.0 mm
16:44 19.9 °C 13.0 °C 1016.8 hPa North 10.1 km/h 19.8 km/h 63 % 0.0 mm
16:49 20.8 °C 13.0 °C 1016.8 hPa North 9.0 km/h 17.2 km/h 63 % 0.0 mm
16:54 20.5 °C 13.0 °C 1016.8 hPa North 16.3 km/h 17.2 km/h 63 % 0.0 mm
16:59 21.0 °C 13.0 °C 1016.8 hPa North 12.2 km/h 21.2 km/h 62 % 0.0 mm
17:04 21.6 °C 13.0 °C 1016.8 hPa North 16.6 km/h 21.2 km/h 59 % 0.0 mm
17:09 21.8 °C 12.0 °C 1016.8 hPa North 16.9 km/h 28.8 km/h 52 % 0.0 mm
17:14 20.8 °C 11.0 °C 1016.8 hPa North 9.3 km/h 28.8 km/h 55 % 0.0 mm
17:19 20.6 °C 11.0 °C 1016.8 hPa NNW 13.7 km/h 23.3 km/h 54 % 0.0 mm
17:24 20.2 °C 11.0 °C 1016.8 hPa North 16.9 km/h 20.6 km/h 55 % 0.0 mm
17:29 19.9 °C 12.0 °C 1018.2 hPa North 12.6 km/h 24.5 km/h 58 % 0.0 mm
17:34 19.4 °C 11.0 °C 1018.2 hPa North 5.8 km/h 24.5 km/h 57 % 0.0 mm
17:51 0.0 °C 10.0 °C 1018.2 hPa NNW 17.2 km/h 17.2 km/h 0 % 0.0 mm
17:56 20.9 °C 11.0 °C 1018.2 hPa North 9.3 km/h 17.2 km/h 53 % 0.0 mm
18:01 20.5 °C 11.0 °C 1018.8 hPa North 6.4 km/h 17.2 km/h 52 % 0.0 mm
18:06 20.8 °C 11.0 °C 1018.8 hPa NNW 11.9 km/h 16.9 km/h 52 % 0.0 mm
18:11 20.3 °C 11.0 °C 1018.8 hPa North 7.9 km/h 20.6 km/h 54 % 0.0 mm
18:16 20.6 °C 11.0 °C 1018.8 hPa NW 11.1 km/h 23.3 km/h 53 % 0.0 mm
18:21 19.9 °C 10.0 °C 1018.8 hPa ENE 13.7 km/h 23.3 km/h 53 % 0.0 mm
18:26 20.0 °C 10.0 °C 1018.8 hPa North 6.1 km/h 19.8 km/h 53 % 0.0 mm
18:31 19.7 °C 10.0 °C 1018.8 hPa NE 12.2 km/h 20.1 km/h 53 % 0.0 mm
18:37 19.3 °C 10.0 °C 1018.8 hPa North 13.0 km/h 20.6 km/h 53 % 0.0 mm
18:42 19.9 °C 10.0 °C 1018.8 hPa North 3.2 km/h 22.4 km/h 53 % 0.0 mm
18:47 20.2 °C 10.0 °C 1018.8 hPa North 9.0 km/h 22.4 km/h 51 % 0.0 mm
18:52 19.2 °C 10.0 °C 1018.8 hPa NNE 17.2 km/h 18.0 km/h 54 % 0.0 mm
18:57 19.8 °C 11.0 °C 1018.8 hPa North 7.9 km/h 19.5 km/h 56 % 0.0 mm
19:02 19.9 °C 11.0 °C 1018.8 hPa NNW 6.1 km/h 19.5 km/h 54 % 0.0 mm
19:07 19.9 °C 10.0 °C 1018.8 hPa NNW 10.1 km/h 16.9 km/h 53 % 0.0 mm
19:12 20.0 °C 10.0 °C 1018.8 hPa NNE 9.3 km/h 20.1 km/h 52 % 0.0 mm
19:17 20.2 °C 10.0 °C 1018.8 hPa North 10.5 km/h 20.1 km/h 52 % 0.0 mm
19:22 20.1 °C 10.0 °C 1018.8 hPa NNE 14.8 km/h 24.8 km/h 52 % 0.0 mm
19:27 19.8 °C 9.0 °C 1018.8 hPa NNW 16.3 km/h 24.8 km/h 50 % 0.0 mm
19:32 19.7 °C 9.0 °C 1018.8 hPa North 13.0 km/h 23.0 km/h 50 % 0.0 mm
19:37 19.7 °C 9.0 °C 1018.8 hPa NNW 17.7 km/h 23.3 km/h 48 % 0.0 mm
19:42 19.1 °C 8.0 °C 1018.8 hPa North 13.0 km/h 23.3 km/h 48 % 0.0 mm
19:43 18.8 °C 8.0 °C 1018.8 hPa North 16.9 km/h 23.3 km/h 50 % 0.0 mm
19:48 18.6 °C 9.0 °C 1019.9 hPa NNW 7.9 km/h 19.8 km/h 52 % 0.0 mm
19:53 19.0 °C 10.0 °C 1019.9 hPa East 4.0 km/h 16.3 km/h 55 % 0.0 mm
19:57 19.2 °C 10.0 °C 1019.9 hPa NNE 12.6 km/h 17.2 km/h 56 % 0.0 mm
20:02 19.3 °C 11.0 °C 1020.9 hPa North 9.7 km/h 17.2 km/h 57 % 0.0 mm
20:07 19.2 °C 11.0 °C 1020.9 hPa NNE 17.7 km/h 19.5 km/h 58 % 0.0 mm
20:12 19.0 °C 10.0 °C 1020.9 hPa NE 13.7 km/h 19.5 km/h 57 % 0.0 mm
20:17 18.6 °C 9.0 °C 1019.9 hPa NNE 17.2 km/h 17.2 km/h 55 % 0.0 mm
20:22 18.3 °C 9.0 °C 1019.9 hPa NNE 4.7 km/h 17.2 km/h 55 % 0.0 mm
20:28 18.1 °C 9.0 °C 1019.9 hPa NNE 6.9 km/h 16.3 km/h 57 % 0.0 mm
20:33 17.8 °C 9.0 °C 1020.9 hPa NE 10.5 km/h 14.0 km/h 58 % 0.0 mm
20:38 17.4 °C 9.0 °C 1020.9 hPa North 12.6 km/h 17.7 km/h 56 % 0.0 mm
20:43 17.2 °C 9.0 °C 1020.9 hPa NNE 9.0 km/h 17.7 km/h 56 % 0.0 mm
20:48 17.0 °C 9.0 °C 1019.9 hPa NNE 9.7 km/h 17.7 km/h 58 % 0.0 mm
20:53 16.8 °C 9.0 °C 1019.9 hPa North 11.9 km/h 16.9 km/h 61 % 0.0 mm
20:58 16.6 °C 9.0 °C 1019.9 hPa East 4.7 km/h 14.0 km/h 62 % 0.0 mm
21:03 16.5 °C 10.0 °C 1020.9 hPa NNE 4.0 km/h 9.7 km/h 63 % 0.0 mm
21:08 16.3 °C 10.0 °C 1020.9 hPa Calm   9.0 km/h 65 % 0.0 mm
21:13 16.1 °C 10.0 °C 1020.9 hPa Calm   9.0 km/h 67 % 0.0 mm
21:18 16.0 °C 10.0 °C 1020.9 hPa Calm   7.9 km/h 67 % 0.0 mm
21:23 15.8 °C 10.0 °C 1020.9 hPa NNW 5.0 km/h 7.9 km/h 68 % 0.0 mm
21:28 15.7 °C 10.0 °C 1020.9 hPa NW 4.7 km/h 6.9 km/h 67 % 0.0 mm
21:33 15.5 °C 10.0 °C 1020.9 hPa WNW 5.0 km/h 6.9 km/h 68 % 0.0 mm
21:38 15.4 °C 10.0 °C 1020.9 hPa North 5.8 km/h 6.9 km/h 68 % 0.0 mm
21:44 15.3 °C 10.0 °C 1020.9 hPa Calm   6.9 km/h 69 % 0.0 mm
21:49 15.1 °C 10.0 °C 1020.9 hPa North 2.6 km/h 6.1 km/h 70 % 0.0 mm
21:54 15.0 °C 10.0 °C 1020.9 hPa NNW 6.4 km/h 6.4 km/h 70 % 0.0 mm
21:59 14.9 °C 10.0 °C 1021.9 hPa North 6.9 km/h 6.9 km/h 71 % 0.0 mm
22:04 14.7 °C 10.0 °C 1021.9 hPa North 4.3 km/h 7.6 km/h 72 % 0.0 mm
22:09 14.6 °C 10.0 °C 1021.9 hPa Calm   7.6 km/h 73 % 0.0 mm
22:14 14.5 °C 10.0 °C 1021.9 hPa Calm   5.8 km/h 73 % 0.0 mm
22:19 14.4 °C 10.0 °C 1021.9 hPa Calm   5.8 km/h 74 % 0.0 mm
22:24 14.2 °C 10.0 °C 1021.9 hPa Calm   5.8 km/h 74 % 0.0 mm
22:29 14.2 °C 10.0 °C 1021.9 hPa Calm   4.7 km/h 76 % 0.0 mm
22:34 14.2 °C 10.0 °C 1021.9 hPa Calm   5.0 km/h 76 % 0.0 mm
22:39 14.1 °C 10.0 °C 1021.9 hPa North 4.0 km/h 5.0 km/h 77 % 0.0 mm
22:44 13.9 °C 10.0 °C 1021.9 hPa Calm   5.0 km/h 78 % 0.0 mm
22:49 13.8 °C 10.0 °C 1021.9 hPa Calm   4.0 km/h 79 % 0.0 mm
22:54 13.7 °C 11.0 °C 1021.9 hPa Calm   5.0 km/h 80 % 0.0 mm
22:59 13.6 °C 11.0 °C 1021.9 hPa Calm   5.0 km/h 80 % 0.0 mm
23:04 13.5 °C 11.0 °C 1021.9 hPa NNW 1.8 km/h 5.5 km/h 81 % 0.0 mm
23:09 13.5 °C 11.0 °C 1021.9 hPa Calm   6.4 km/h 81 % 0.0 mm
23:10 13.5 °C 11.0 °C 1021.9 hPa Calm   6.4 km/h 81 % 0.0 mm
23:15 13.4 °C 10.0 °C 1022.9 hPa North 4.0 km/h 4.7 km/h 81 % 0.0 mm
23:20 13.3 °C 11.0 °C 1022.9 hPa Calm   4.7 km/h 82 % 0.0 mm
23:25 13.1 °C 10.0 °C 1022.9 hPa Calm   3.2 km/h 82 % 0.0 mm
23:31 12.9 °C 10.0 °C 1022.9 hPa Calm     83 % 0.0 mm
23:36 12.7 °C 10.0 °C 1022.9 hPa Calm     83 % 0.0 mm
23:41 12.5 °C 10.0 °C 1022.9 hPa Calm     83 % 0.0 mm
23:46 12.4 °C 10.0 °C 1022.9 hPa Calm     84 % 0.0 mm
23:51 12.2 °C 10.0 °C 1022.9 hPa Calm     84 % 0.0 mm
23:56 11.9 °C 9.0 °C 1022.9 hPa Calm     84 % 0.0 mm
Le Gheer Warneton
Courtoisie de Weather Underground - 2.25 mb

Mise a jour : 17/12/2017 22:20:15
Généré par Cumulus 1.9.4 (1099)